Location:  
MeteoStar


Sort by weather type Sort by elevation Sort by visibility Sort from west to east north Sort from north to south Alphabetically Sort from strongest wind speed Sort from lowest to highest pressure Sort from highest to lowest dew point temperature Sort coolest temperatures to warmest Sort warm temperatures to coolest
 Metric

Current Observations for United Kingdom sorted by weather type

Weybourne04:00ZShowers61 5851006.7S 6 6168
Isle Of Portland04:00ZLight Showers57 53121006.0SW 11 57173
Loftus Samos04:00ZLight Showers58 5741006.9ESE 15 58190
Holbeach04:00ZLight Showers59 58121006ESE 9 599
Waddington03:50ZHeavy Rain57 572.51005.1SE 9 57223
Norwich Weather Centre03:50ZHeavy Rain63 5731007.1N 3 6345
Nottingham Weather Centre04:00ZRain56 562.751005.7S 4 56383
Topcliffe Royal Air Force Base 03:50ZRain59 5941006.1ESE 8 5991
Leeming03:50ZRain59 5741006.1ESE 4 59131
Wattisham03:50ZRain61 5761006.0SE 5 61285
Humberside03:50ZRain59 5741006.1ESE 5 59101
Bedford04:00ZLight Rain56 5561005.5SSE 5 56278
Warcop Range04:00ZLight Rain57 5481005.5ESE 14 57744
Keswick04:00ZLight Rain59 5431005.4SE 5 59265
Leconfield03:50ZLight Rain59 592.751006.1ENE 2 5919
Coningsby Royal Air Force Base03:50ZLight Rain59 5741006.1ESE 5 5922
Manston04:00ZLight Rain59 56121007.4S 11 59180
Stansted Airport03:50ZLight Rain55 5541006.0W 6 55347
Spadeadam03:50ZLight Rain55 5461006.0E 10 551066
East Midlands03:50ZLight Rain55 55201005.1S 4 55308
Southend-On-Sea 03:50ZLight Rain61 57131006.1S 12 6149
London City Airport03:50ZLight Rain59 5541006.1SW 5 5916
Luton Airport 03:50ZLight Rain55 5551006.0SW 3 55524
Spadeadam04:00ZRain/Drizzle55 5361006.7E 10 55935
West Freugh04:00ZDrizzle57 5781004.4ENE 7 5736
Fairford Royal Air Force Base03:45ZLight Drizzle50 5041005.2CALM50285
Lakenheath Royal Air Force Base03:42ZLight Drizzle59 59301006ESE 7 5932
Pershore04:00ZFog53 53181006.0SSE 2 53104
Bournemouth Airport04:00ZFog54 53121006.2S 4 5336
Boscombe Down03:50ZFog50 500.061006.1SSE 2 50406
Brize Norton03:50ZFog54 5231005.1CALM54288
London / Gatwick Airport03:50ZFog55 5541006.1SSW 2 55203
Birmingham / Airport03:50ZFog50 500.121005.1S 3 50324
Glenanne04:00ZMist51 5141003.7NE 3 51528
Church Lawford04:00ZMist53 5351005.7SSW 2 53351
Charterhall04:00ZMist56 5571008.4ENE 7 56367
Inverbervie04:00ZMist56 551.751011.2E 16 56439
Aberdeen / Dyce03:50ZMist57 5531012.1ESE 7 57213
Wick03:50ZMist55 552.51013.1ESE 12 55127
Boulmer03:50ZHaze59 5751008.1E 8 5975
Camborne04:00ZCloudy51 49121004.5SSW 5 49285
Kinloss03:50ZCloudy57 54101011.1ENE 10 5722
Edinburgh Airport03:50ZCloudy57 5431008.1NE 7 57134
Marham03:50ZMostly Cloudy59 57131006.1E 6 5975
Cranwell03:50ZMostly Cloudy57 5741005.1SE 7 57219
Linton-On-Ouse03:50ZMostly Cloudy59 5941006.1ESE 6 5952
Middle Wallop03:50ZMostly Cloudy52 500.061006.1SSE 4 51298
Mildenhall Royal Air Force Base03:48ZMostly Cloudy59 59121006ESE 9 5932
Kirkwall Airport03:50ZMostly Cloudy57 5551014.1ESE 11 5768
Shawbury03:50ZMostly Cloudy52 5271004.1ENE 2 52249
Lydd Airport 03:50ZMostly Cloudy61 59131007.1SW 11 619
London / Heathrow Airport03:50ZMostly Cloudy57 55131006.1S 5 5778
Culdrose03:50ZMostly Cloudy54 50141004.1SW 4 53255
Lerwick04:00ZPartly Cloudy54 53121016.5E 7 52269
Lossiemouth03:50ZPartly Cloudy57 54121012.1E 6 5742
Pembrey Sands03:50ZPartly Cloudy54 52121003.1SE 4 539
Newcastle 03:50ZPartly Cloudy59 57201007.1ESE 6 59265
Leeds And Bradford03:50ZPartly Cloudy57 55141005.0ESE 9 57682
Jersey Airport03:50ZPartly Cloudy57 54251008.1WSW 15 57275
Cardiff-Wales Airport03:50ZPartly Cloudy55 52191005.1SSW 7 55219
Manchester Airport03:50ZPartly Cloudy54 520.121005.1N 2 54226
Belfast / Aldergrove Airport03:50ZPartly Cloudy54 5241004.1N 3 54265
Herstmonceux04:00ZClear57 56101007S 2 57170
Kenley04:00ZClear55 55161006.7SW 7 55557
Shoeburyness04:00ZClear61 58201006.5S 13 616
High Wicombe Hqstc04:00ZClear53 5371006.2SW 3 53669
Sennybridge04:00ZClear50 49201004.7SSE 7 471007
Eskdalemuir04:00ZClear56 52101007.2E 7 56793
Dundrennan04:00ZClear57 5641004.5ENE 14 57374
Northolt03:50ZClear55 55151006.1S 3 55124
Odiham03:50ZClear52 5281006.1SSW 5 51403
Benson03:50ZClear50 500.121006.1S 2 50206
Exeter Airport04:20ZClear50 4841005.1N 3 5098
Tiree03:50ZClear59 54131006.1ENE 10 5939
Stornoway03:50ZClear59 55101010.1ESE 9 5929
Scatsa / Shetland Island03:50ZClear54 5231017.1ESE 10 5172
Benbecula03:50ZClear55 5231008.1ENE 6 5519
Prestwick Airport03:50ZClear61 5231006.1E 7 6165
Glasgow Airport03:50ZClear59 5431007.1ENE 13 5926
Sumburgh Cape 03:50ZClear55 5451016.1ESE 8 5516
Valley03:50ZClear52 48121003.1E 9 493
Isle Of Man / Ronaldsway Airport03:50ZClear54 52201004.1ENE 6 5255
Walney Island04:00ZClear57 55141004.7ESE 6 5749
Guernsey Airport03:50ZClear57 54251007.1SW 12 57334
Scilly; Saint MaryS04:00ZClear54 51171004.4SW 13 Gusting to 26 50101
Bristol / Lulsgate 03:50ZClear52 50191005.2SW 6 50620
Yeovilton03:50ZClear48 48191005.1S 4 4775
St Athan Royal Air Force Base03:50ZClear55 52141004.1SSW 5 55164

Atlantic
Tropical Watch